Weather History for Flint, MI

Change the Weather History Date:

Thursday, September 29, 2011

  Actual Average Record
Temperature  
Mean Temperature 56 °F 56 °F  
Max Temperature 64 °F 67 °F 84 °F (1939)
Min Temperature 47 °F 45 °F 28 °F (1951)
Degree Days  
Heating Degree Days 9 10  
Month to date heating degree days 143 155  
Since 1 July heating degree days 149 199  
Cooling Degree Days 0 1  
Month to date cooling degree days 74 48  
Year to date cooling degree days 816 525  
Growing Degree Days 6 (Base 50)    
Moisture  
Dew Point 52 °F    
Average Humidity 86    
Maximum Humidity 100    
Minimum Humidity 72    
Precipitation  
Precipitation 0.29 in 0.12 in 1.46 in (1986)
Month to date precipitation 1.83 3.64  
Year to date precipitation 33.28 24.20  
Snow  
Snow 0.00 in 0.00 in T in ()
Month to date snowfall 0.0 0.0  
Since 1 July snowfall 0.0 0.0  
Since 1 September snowfall 0.0 0.0  
Snow Depth 0.00 in    
Sea Level Pressure  
Sea Level Pressure 29.67 in    
Wind  
Wind Speed 6 mph (SW)    
Max Wind Speed 22 mph    
Max Gust Speed 30 mph    
Visibility 4 miles    
Events Fog , Rain    
T = Trace of Precipitation, MM = Missing Value Source: NWS Daily Summary

Daily Weather History Graph

Daily Weather History Graph

Search for Another Location

Airport:

Trip Planner

Search our weather history database for the weather conditions in past years. The results will help you decide how hot, cold, wet, or windy it might be!

Date:

Astronomy

Sep. 29, 2011 Rise Set
Actual Time 7:29 AM EDT 7:20 PM EDT
Civil Twilight 7:01 AM EDT 7:48 PM EDT
Nautical Twilight 6:28 AM EDT 8:21 PM EDT
Astronomical Twilight 5:55 AM EDT 8:54 PM EDT
Moon 10:19 AM EDT (9/29) 8:25 PM EDT (9/29)
Length of Visible Light 12h 47m
Length of Day
11h 50m
Waxing Crescent, 7% of the Moon is Illuminated
Sep 29
Waxing Crescent
Oct 3
First Quarter
Oct 11
Full
Oct 19
Last Quarter
Oct 26
New

Hourly Weather History & Observations

Time (EDT) Temp. Dew Point Humidity Pressure Visibility Wind Dir Wind Speed Gust Speed Precip Events Conditions
12:53 AM 52.0 °F 51.1 °F 97% 29.78 in 4.0 mi Calm Calm - N/A   Partly Cloudy
1:10 AM 51.8 °F 50.0 °F 94% 29.77 in 1.8 mi Calm Calm - N/A   Partly Cloudy
1:19 AM 51.8 °F 50.0 °F 94% 29.76 in 0.2 mi Calm Calm - N/A Fog Fog
1:33 AM 48.2 °F 48.2 °F 100% 29.76 in 0.2 mi Calm Calm - N/A Fog Fog
1:53 AM 50.0 °F 48.9 °F 96% 29.76 in 0.2 mi Calm Calm - N/A Fog Fog
2:17 AM 48.2 °F 48.2 °F 100% 29.76 in 0.2 mi Calm Calm - N/A Fog Fog
2:32 AM 48.2 °F 46.4 °F 93% 29.75 in 0.2 mi Calm Calm - N/A Fog Fog
2:44 AM 48.2 °F 46.4 °F 93% 29.75 in 1.0 mi Calm Calm - N/A   Mist
2:47 AM 48.2 °F 46.4 °F 93% 29.75 in 2.0 mi Calm Calm - N/A   Scattered Clouds
2:53 AM 48.9 °F 46.9 °F 93% 29.75 in 2.5 mi Calm Calm - N/A   Partly Cloudy
3:15 AM 51.8 °F 48.2 °F 88% 29.75 in 2.5 mi Calm Calm - N/A   Mostly Cloudy
3:24 AM 51.8 °F 48.2 °F 88% 29.75 in 3.0 mi Calm Calm - N/A   Overcast
3:53 AM 51.8 °F 50.0 °F 94% 29.74 in 1.8 mi Calm Calm - N/A   Overcast
4:02 AM 51.8 °F 50.0 °F 94% 29.74 in 0.2 mi SW 3.5 mph - N/A Fog Fog
4:19 AM 51.8 °F 50.0 °F 94% 29.74 in 0.5 mi SW 3.5 mph - N/A Fog Fog
4:53 AM 52.0 °F 51.1 °F 97% 29.73 in 0.5 mi SW 3.5 mph - N/A Fog Fog
5:53 AM 52.0 °F 51.1 °F 97% 29.73 in 0.8 mi West 5.8 mph - N/A   Mist
6:15 AM 51.8 °F 51.8 °F 100% 29.74 in 2.0 mi Variable 3.5 mph - N/A   Overcast
6:24 AM 51.8 °F 51.8 °F 100% 29.73 in 4.0 mi Calm Calm - N/A   Overcast
6:53 AM 53.1 °F 51.1 °F 93% 29.73 in 5.0 mi Calm Calm - N/A   Overcast
7:27 AM 53.6 °F 51.8 °F 94% 29.72 in 1.0 mi SW 3.5 mph - N/A   Overcast
7:38 AM 53.6 °F 51.8 °F 94% 29.72 in 0.5 mi SSW 3.5 mph - N/A Fog Fog
7:53 AM 53.1 °F 52.0 °F 96% 29.73 in 0.5 mi SW 3.5 mph - N/A Fog Fog
8:18 AM 53.6 °F 53.6 °F 100% 29.73 in 0.2 mi SSW 4.6 mph - N/A Fog Fog
8:25 AM 53.6 °F 53.6 °F 100% 29.73 in 0.8 mi WSW 4.6 mph - N/A   Mist
8:32 AM 53.6 °F 53.6 °F 100% 29.73 in 1.2 mi WSW 4.6 mph - N/A   Overcast
8:44 AM 53.6 °F 53.6 °F 100% 29.73 in 2.5 mi SW 4.6 mph - N/A   Overcast
8:53 AM 54.0 °F 53.1 °F 97% 29.73 in 2.5 mi SW 4.6 mph - N/A   Overcast
9:53 AM 55.4 °F 53.6 °F 94% 29.72 in 2.5 mi SW 4.6 mph - N/A   Overcast
10:26 AM 57.2 °F 53.6 °F 88% 29.71 in 2.5 mi SW 5.8 mph - N/A   Overcast
10:53 AM 57.0 °F 54.0 °F 89% 29.70 in 5.0 mi SSW 4.6 mph - N/A   Overcast
11:09 AM 59.0 °F 53.6 °F 82% 29.69 in 7.0 mi SSW 5.8 mph - N/A   Mostly Cloudy
11:53 AM 61.0 °F 54.0 °F 78% 29.69 in 10.0 mi SW 9.2 mph - N/A   Overcast
12:53 PM 63.0 °F 54.0 °F 72% 29.68 in 10.0 mi WSW 10.4 mph - N/A   Mostly Cloudy
1:23 PM 62.6 °F 53.6 °F 72% 29.67 in 10.0 mi WSW 13.8 mph - N/A   Mostly Cloudy
1:53 PM 63.0 °F 53.1 °F 70% 29.66 in 10.0 mi WSW 12.7 mph - N/A   Mostly Cloudy
2:53 PM 63.0 °F 53.1 °F 70% 29.61 in 10.0 mi SW 8.1 mph - N/A   Mostly Cloudy
3:11 PM 62.6 °F 53.6 °F 72% 29.60 in 10.0 mi SW 9.2 mph - N/A   Mostly Cloudy
3:22 PM 62.6 °F 53.6 °F 72% 29.60 in 10.0 mi SW 6.9 mph - N/A   Mostly Cloudy
3:53 PM 63.0 °F 54.0 °F 72% 29.60 in 10.0 mi SW 8.1 mph - 0.00 in Rain Light Rain
4:14 PM 60.8 °F 55.4 °F 82% 29.60 in 5.0 mi SSW 6.9 mph - 0.01 in Rain Light Rain
4:53 PM 59.0 °F 55.9 °F 90% 29.59 in 3.0 mi SSW 8.1 mph - 0.08 in Rain Light Rain
5:53 PM 57.9 °F 55.0 °F 90% 29.55 in 3.0 mi SSW 9.2 mph - 0.11 in Rain Light Rain
6:53 PM 57.9 °F 55.0 °F 90% 29.54 in 5.0 mi SSW 9.2 mph - 0.04 in Rain Light Rain
7:08 PM 57.2 °F 55.4 °F 94% 29.52 in 2.5 mi SSW 10.4 mph - 0.03 in Rain Rain
7:18 PM 57.2 °F 55.4 °F 94% 29.52 in 7.0 mi SSW 10.4 mph - 0.03 in Rain Light Rain
7:38 PM 57.2 °F 55.4 °F 94% 29.51 in 7.0 mi SSW 10.4 mph - 0.04 in Rain Light Rain
7:53 PM 57.2 °F 55.4 °F 94% 29.51 in 9.0 mi SSW 9.2 mph - N/A   Overcast
8:18 PM 57.2 °F 55.4 °F 94% 29.51 in 10.0 mi SSW 9.2 mph - N/A   Overcast
8:31 PM 57.2 °F 55.4 °F 94% 29.51 in 10.0 mi SW 6.9 mph - N/A   Overcast
8:53 PM 57.9 °F 54.0 °F 87% 29.52 in 10.0 mi SW 10.4 mph - N/A   Mostly Cloudy
9:08 PM 55.4 °F 51.8 °F 88% 29.53 in 5.0 mi West 18.4 mph 28.8 mph 0.02 in Rain Light Rain
9:53 PM 53.1 °F 48.9 °F 86% 29.51 in 10.0 mi SW 4.6 mph - 0.02 in   Overcast
10:53 PM 51.8 °F 48.2 °F 88% 29.49 in 10.0 mi SSW 6.9 mph - N/A   Clear
11:53 PM 51.1 °F 46.9 °F 86% 29.49 in 10.0 mi SW 6.9 mph - N/A   Clear